Terminal Aerodrome Forecast
Issued by NWS Spokane, WA

Home | Current Version | Previous Version | Text Only | Print | Product List | Glossary On
Versions: 1 2 3 4 5 6 7 8 9 10 11 12 13 14 15 16 17 18 19 20 21 22 23 24 25 26
000
FTUS46 KOTX 210535
TAFEAT
TAF
KEAT 210535Z 2106/2206 30010KT P6SM SKC
     FM211800 25004KT P6SM FEW070 SCT200
     FM212100 13006KT P6SM FEW080 SCT120
     FM220100 31012KT P6SM FEW120=

USA.gov is the U.S. government's official web portal to all federal, state and local government web resources and services.